Location: Albany
(35.0170°S, 117.8920°E)
Time: 00:58:08
(UTC+08:00)

Explorer 7 - Pass Details

Date: 26 January 2021
Orbit: 484 x 677 km, 50.3° (Epoch: 01 March)

Event Time Altitude Azimuth Distance (km) Brightness Sun altitude
Rises 23:21:07 0° 242° (WSW) 2,830 11.0 -34.6°
Enters shadow 23:23:03 - 251° (WSW) 2,137 10.2 -34.7°
Reaches altitude 10° 23:23:50 10° 257° (WSW) 1,883 - -34.7°
Maximum altitude 23:27:11 23° 309° (NW) 1,210 - -34.9°
Drops below altitude 10° 23:30:23 10° 1° (N) 1,774 - -35.1°
Sets 23:32:51 0° 16° (NNE) 2,622 - -35.2°
